Location: Austin
(30.3000°N, 97.7500°W)
Time: 03:05:54
(UTC-05:00)

SJ-6B - Pass Details

Date: 01 October 2024
Orbit: 483 x 539 km, 97.4° (Epoch: 06 October)

Event Time Altitude Azimuth Distance (km) Brightness Sun altitude
Exits shadow 20:58:26 43° 351° (N) 693 3.4 -23.0°
Drops below altitude 10° 21:00:57 10° 350° (N) 1,675 5.5 -23.5°
Sets 21:03:01 0° 350° (N) 2,565 6.5 -24.0°
